TRA216Y GCTS-EHEH

Flight info

Callsign TRA216Y
Flight time N/A
Altitude 32000
Route KONBA UN866 OSDIV/N0464F340 UN866 BEXAL DCT ULVOT DCT ESP DCT DEKKI DCT ABRAT DCT TOSDI DCT ZMR DCT NUBLO DCT RONSI DCT DELOG DCT PEXOD DCT DIDIG DCT USODA DCT ERCUT DCT DITAL UN873 BAZOS DCT BELDI DCT VEKIN DCT ADUTO N873 FERDI Y18 DENUT
Aircraft B738/M-SDE2E3FGHIRWXY/LB1

Departure

Time 2026-04-28 11:37
Airport Tenerife Sur Airport (GCTS)

Arrival

Time N/A
Airport Eindhoven Airport (EHEH)
Time Latitude Longitude Altitude Speed Heading
2026-04-28 11:03 28.04679 -16.57788 221 ft 0 kts 339°
2026-04-28 11:25 28.04669 -16.57783 221 ft 4 kts 344°
2026-04-28 11:25 28.04643 -16.57778 220 ft 4 kts
2026-04-28 11:26 28.04616 -16.57782 218 ft 4 kts 23°
2026-04-28 11:26 28.04596 -16.57798 219 ft 4 kts 63°
2026-04-28 11:26 28.04594 -16.57804 225 ft 2 kts 69°
2026-04-28 11:29 28.04596 -16.57796 219 ft 2 kts 69°
2026-04-28 11:29 28.04602 -16.57779 221 ft 3 kts 70°
2026-04-28 11:30 28.04600 -16.57745 216 ft 7 kts 107°
2026-04-28 11:30 28.04517 -16.57610 205 ft 14 kts 70°
2026-04-28 11:30 28.04552 -16.57509 211 ft 14 kts 69°
2026-04-28 11:31 28.04582 -16.57410 215 ft 13 kts 71°
2026-04-28 11:31 28.04614 -16.57317 209 ft 13 kts 69°
2026-04-28 11:31 28.04645 -16.57225 209 ft 12 kts 69°
2026-04-28 11:31 28.04678 -16.57137 210 ft 12 kts 64°
2026-04-28 11:32 28.04708 -16.57051 211 ft 12 kts 67°
2026-04-28 11:32 28.04739 -16.56966 211 ft 11 kts 68°
2026-04-28 11:32 28.04770 -16.56886 209 ft 11 kts 65°
2026-04-28 11:32 28.04799 -16.56806 213 ft 11 kts 68°
2026-04-28 11:33 28.04827 -16.56724 212 ft 12 kts 69°
2026-04-28 11:33 28.04860 -16.56626 210 ft 14 kts 68°
2026-04-28 11:33 28.04898 -16.56519 214 ft 14 kts 68°
2026-04-28 11:33 28.04933 -16.56417 214 ft 14 kts 68°
2026-04-28 11:34 28.04967 -16.56318 220 ft 13 kts 69°
2026-04-28 11:34 28.05001 -16.56224 221 ft 13 kts 68°
2026-04-28 11:34 28.05033 -16.56133 221 ft 12 kts 68°
2026-04-28 11:34 28.05064 -16.56042 222 ft 12 kts 69°
2026-04-28 11:35 28.05091 -16.55942 221 ft 15 kts 87°
2026-04-28 11:35 28.05066 -16.55865 220 ft 1 kts 141°
2026-04-28 11:35 28.05060 -16.55860 220 ft 1 kts 146°
2026-04-28 11:35 28.05051 -16.55854 220 ft 3 kts 152°
2026-04-28 11:36 28.05011 -16.55838 220 ft 9 kts 167°
2026-04-28 11:36 28.04951 -16.55837 224 ft 9 kts 217°
2026-04-28 11:36 28.04908 -16.55938 222 ft 35 kts 247°
2026-04-28 11:36 28.04729 -16.56451 211 ft 105 kts 250°
2026-04-28 11:37 28.04381 -16.57448 210 ft 163 kts 248°
2026-04-28 11:37 28.03901 -16.58750 489 ft 188 kts 246°
2026-04-28 11:37 28.03422 -16.60129 1393 ft 187 kts 248°
2026-04-28 11:37 28.02938 -16.61521 2109 ft 194 kts 247°
2026-04-28 11:38 28.02396 -16.62954 2670 ft 206 kts 247°
2026-04-28 11:38 28.01803 -16.64508 3029 ft 224 kts 247°
2026-04-28 11:38 28.01141 -16.66211 3381 ft 242 kts 242°
2026-04-28 11:38 28.00033 -16.67578 4174 ft 239 kts 209°
2026-04-28 11:39 27.98410 -16.67948 4807 ft 243 kts 169°
2026-04-28 11:39 27.96843 -16.67311 5430 ft 245 kts 156°
2026-04-28 11:39 27.95269 -16.66524 6079 ft 248 kts 156°
2026-04-28 11:39 27.93671 -16.65742 6750 ft 249 kts 157°
2026-04-28 11:40 27.92077 -16.64975 7340 ft 253 kts 156°
2026-04-28 11:40 27.90629 -16.63820 7901 ft 257 kts 127°
2026-04-28 11:40 27.89917 -16.61995 8377 ft 265 kts 97°
2026-04-28 11:40 27.90149 -16.59868 8545 ft 283 kts 68°
2026-04-28 11:41 27.90925 -16.57784 9025 ft 293 kts 65°
2026-04-28 11:41 27.91753 -16.55666 9641 ft 297 kts 65°
2026-04-28 11:41 27.92595 -16.53504 10270 ft 301 kts 65°
2026-04-28 11:41 27.93445 -16.51295 10521 ft 319 kts 65°
2026-04-28 11:42 27.94358 -16.48895 10682 ft 339 kts 65°
2026-04-28 11:42 27.95301 -16.46389 10824 ft 359 kts 66°
2026-04-28 11:42 27.96307 -16.43706 10959 ft 377 kts 66°
2026-04-28 11:42 27.97342 -16.40936 11121 ft 391 kts 66°
2026-04-28 11:43 27.98406 -16.38086 11515 ft 398 kts 66°
2026-04-28 11:43 27.99489 -16.35187 12060 ft 400 kts 66°
2026-04-28 11:43 28.00591 -16.32284 12608 ft 402 kts 63°
2026-04-28 11:43 28.02112 -16.29664 13049 ft 403 kts 48°
2026-04-28 11:44 28.03953 -16.27251 13598 ft 405 kts 47°
2026-04-28 11:44 28.05819 -16.24828 14080 ft 408 kts 47°
2026-04-28 11:44 28.07661 -16.22406 14514 ft 411 kts 48°
2026-04-28 11:44 28.09521 -16.19922 14952 ft 414 kts 48°
2026-04-28 11:45 28.11381 -16.17409 15394 ft 416 kts 48°
2026-04-28 11:45 28.13229 -16.14896 15829 ft 419 kts 48°
2026-04-28 11:45 28.15107 -16.12338 16265 ft 422 kts 48°
2026-04-28 11:45 28.16976 -16.09790 16691 ft 425 kts 48°
2026-04-28 11:46 28.18866 -16.07214 17099 ft 427 kts 48°
2026-04-28 11:46 28.20983 -16.04804 17452 ft 427 kts 32°
2026-04-28 11:46 28.23615 -16.03390 17865 ft 423 kts 13°
2026-04-28 11:46 28.26501 -16.02863 18309 ft 419 kts 358°
2026-04-28 11:47 28.29392 -16.03140 18691 ft 419 kts 351°
2026-04-28 11:47 28.32313 -16.03578 19027 ft 422 kts 350°
2026-04-28 11:47 28.35210 -16.04033 19355 ft 424 kts 350°
2026-04-28 11:47 28.38169 -16.04492 19709 ft 426 kts 350°
2026-04-28 11:48 28.41080 -16.04932 20062 ft 428 kts 350°
2026-04-28 11:48 28.44069 -16.05371 20408 ft 430 kts 351°
2026-04-28 11:48 28.47013 -16.05796 20733 ft 433 kts 351°
2026-04-28 11:48 28.50015 -16.06224 21058 ft 435 kts 351°
2026-04-28 11:49 28.53012 -16.06649 21382 ft 437 kts 351°
2026-04-28 11:49 28.56069 -16.07082 21707 ft 439 kts 351°
2026-04-28 11:49 28.59096 -16.07512 22055 ft 440 kts 351°
2026-04-28 11:49 28.62116 -16.07940 22435 ft 440 kts 351°
2026-04-28 11:50 28.65180 -16.08376 22738 ft 442 kts 351°
2026-04-28 11:50 28.68224 -16.08809 23008 ft 444 kts 351°
2026-04-28 11:50 28.71318 -16.09250 23286 ft 446 kts 351°
2026-04-28 11:50 28.74384 -16.09687 23568 ft 448 kts 351°
2026-04-28 11:51 28.77494 -16.10131 23816 ft 449 kts 350°
2026-04-28 11:51 28.80586 -16.10572 24042 ft 451 kts 350°
2026-04-28 11:51 28.83693 -16.11016 24068 ft 455 kts 350°
2026-04-28 11:51 28.86863 -16.11469 24079 ft 454 kts 350°
2026-04-28 11:52 28.89967 -16.11912 24072 ft 450 kts 350°
2026-04-28 11:52 28.93044 -16.12350 24075 ft 448 kts 351°
2026-04-28 11:52 28.96193 -16.12397 24059 ft 455 kts
2026-04-28 11:52 28.99269 -16.11472 24100 ft 459 kts 14°
2026-04-28 11:53 29.02303 -16.10380 24076 ft 460 kts 14°
2026-04-28 11:53 29.05375 -16.09279 24083 ft 461 kts 14°
2026-04-28 11:53 29.08423 -16.08199 24070 ft 461 kts 14°
2026-04-28 11:53 29.11521 -16.07115 24071 ft 462 kts 14°
2026-04-28 11:54 29.14586 -16.06051 24088 ft 462 kts 13°
2026-04-28 11:54 29.17640 -16.04998 24077 ft 462 kts 13°
2026-04-28 11:54 29.20751 -16.03926 24079 ft 462 kts 13°
2026-04-28 11:54 29.23801 -16.02876 24074 ft 461 kts 13°
2026-04-28 11:55 29.26891 -16.01812 24073 ft 460 kts 13°
2026-04-28 11:55 29.29934 -16.00762 24076 ft 459 kts 13°
2026-04-28 11:55 29.33009 -15.99701 24080 ft 459 kts 13°
2026-04-28 11:55 29.36045 -15.98652 24079 ft 458 kts 13°
2026-04-28 11:56 29.39119 -15.97589 24079 ft 458 kts 13°
2026-04-28 11:56 29.42139 -15.96544 24076 ft 457 kts 13°
2026-04-28 11:56 29.45172 -15.95495 24092 ft 457 kts 14°
2026-04-28 11:56 29.47201 -15.94792 24086 ft 456 kts 14°
2026-04-28 11:57 29.51248 -15.93389 24076 ft 455 kts 14°
2026-04-28 11:57 29.53304 -15.92676 24075 ft 455 kts 14°
2026-04-28 11:57 29.56315 -15.91631 24076 ft 454 kts 14°
2026-04-28 11:57 29.59359 -15.90574 24075 ft 454 kts 14°
2026-04-28 11:58 29.62361 -15.89531 24077 ft 454 kts 14°
2026-04-28 11:58 29.65393 -15.88477 24076 ft 453 kts 14°
2026-04-28 11:58 29.68402 -15.87431 24077 ft 453 kts 14°
2026-04-28 11:58 29.71399 -15.86387 24078 ft 453 kts 14°
2026-04-28 11:59 29.74445 -15.85327 24075 ft 453 kts 14°
2026-04-28 11:59 29.77448 -15.84280 24076 ft 454 kts 14°
2026-04-28 11:59 29.80479 -15.83223 24077 ft 454 kts 14°
2026-04-28 11:59 29.83488 -15.82173 24078 ft 454 kts 14°
2026-04-28 12:00 29.86526 -15.81112 24075 ft 454 kts 14°
2026-04-28 12:00 29.89540 -15.80059 24078 ft 455 kts 14°
2026-04-28 12:00 29.92594 -15.78990 24081 ft 455 kts 14°
2026-04-28 12:00 29.95597 -15.77940 24079 ft 455 kts 14°
2026-04-28 12:01 29.98644 -15.76873 24077 ft 455 kts 14°
2026-04-28 12:01 30.01649 -15.75821 24090 ft 455 kts 14°
2026-04-28 12:01 30.04685 -15.74758 24082 ft 455 kts 14°
2026-04-28 12:01 30.07724 -15.73693 24076 ft 454 kts 14°
2026-04-28 12:02 30.10754 -15.72630 24077 ft 454 kts 14°
2026-04-28 12:02 30.13753 -15.71578 24217 ft 456 kts 14°
2026-04-28 12:02 30.16804 -15.70506 24548 ft 455 kts 14°
2026-04-28 12:02 30.19807 -15.69450 24838 ft 455 kts 14°
2026-04-28 12:03 30.22848 -15.68381 25065 ft 456 kts 14°
2026-04-28 12:03 30.25920 -15.67300 25270 ft 459 kts 14°
2026-04-28 12:03 30.28954 -15.66232 25478 ft 460 kts 14°
2026-04-28 12:03 30.32015 -15.65154 25747 ft 460 kts 14°
2026-04-28 12:04 30.35099 -15.64066 26032 ft 461 kts 14°
2026-04-28 12:04 30.38175 -15.62980 26248 ft 462 kts 14°
2026-04-28 12:04 30.41215 -15.61906 26473 ft 463 kts 14°
2026-04-28 12:04 30.44319 -15.60809 26775 ft 462 kts 14°
2026-04-28 12:05 30.47375 -15.59728 27121 ft 460 kts 14°
2026-04-28 12:05 30.50451 -15.58639 27448 ft 459 kts 14°
2026-04-28 12:05 30.53486 -15.57564 27734 ft 459 kts 14°
2026-04-28 12:05 30.56549 -15.56479 28020 ft 459 kts 14°
2026-04-28 12:06 30.59577 -15.55406 28354 ft 457 kts 14°
2026-04-28 12:06 30.62622 -15.54325 28769 ft 454 kts 14°
2026-04-28 12:06 30.65622 -15.53260 29103 ft 453 kts 14°
2026-04-28 12:06 30.68656 -15.52182 29362 ft 454 kts 14°
2026-04-28 12:07 30.71643 -15.51121 29635 ft 454 kts 14°
2026-04-28 12:07 30.74687 -15.50039 29957 ft 453 kts 13°
2026-04-28 12:07 30.77672 -15.48976 30278 ft 452 kts 13°
2026-04-28 12:07 30.80695 -15.47899 30530 ft 451 kts 13°
2026-04-28 12:08 30.83704 -15.46827 30759 ft 451 kts 13°
2026-04-28 12:08 30.86687 -15.45764 30992 ft 451 kts 13°
2026-04-28 12:08 30.89697 -15.44689 31363 ft 447 kts 14°
2026-04-28 12:08 30.92667 -15.43627 31719 ft 444 kts 13°
2026-04-28 12:09 30.95605 -15.42577 31910 ft 445 kts 13°
2026-04-28 12:09 30.98593 -15.41510 32032 ft 447 kts 13°
2026-04-28 12:09 31.04508 -15.39394 32069 ft 447 kts 13°
2026-04-28 12:10 31.10456 -15.37262 32076 ft 446 kts 13°
2026-04-28 12:10 31.16377 -15.35137 32078 ft 445 kts 14°
2026-04-28 12:11 31.22278 -15.33016 32059 ft 444 kts 14°
2026-04-28 12:11 31.28187 -15.30890 32066 ft 443 kts 14°
2026-04-28 12:12 31.31092 -15.29589 32041 ft 448 kts 27°
2026-04-28 12:12 31.33684 -15.27592 32101 ft 449 kts 31°
2026-04-28 12:12 31.38853 -15.23473 32069 ft 450 kts 30°
2026-04-28 12:13 31.44051 -15.19393 32084 ft 450 kts 30°
2026-04-28 12:13 31.49269 -15.15328 32064 ft 450 kts 30°
2026-04-28 12:14 31.54490 -15.11267 32064 ft 450 kts 30°
2026-04-28 12:14 31.59710 -15.07200 32065 ft 450 kts 30°
2026-04-28 12:15 31.64904 -15.03147 32062 ft 449 kts 30°
2026-04-28 12:15 31.70098 -14.99088 32062 ft 449 kts 30°
2026-04-28 12:16 31.75292 -14.95023 32079 ft 448 kts 30°
2026-04-28 12:16 31.80514 -14.90930 32065 ft 448 kts 30°
2026-04-28 12:17 31.85661 -14.86891 32054 ft 447 kts 30°
2026-04-28 12:17 31.90833 -14.82827 32057 ft 446 kts 30°
2026-04-28 12:18 31.95977 -14.78779 32057 ft 445 kts 30°
2026-04-28 12:18 32.01145 -14.74706 32057 ft 444 kts 30°
2026-04-28 12:19 32.06270 -14.70662 32073 ft 444 kts 30°
2026-04-28 12:19 32.11395 -14.66613 32058 ft 443 kts 30°
2026-04-28 12:20 32.16521 -14.62556 32054 ft 443 kts 30°
2026-04-28 12:20 32.21626 -14.58511 32054 ft 442 kts 30°
2026-04-28 12:21 32.26738 -14.54456 32064 ft 442 kts 30°
2026-04-28 12:21 32.31848 -14.50396 32075 ft 443 kts 30°
2026-04-28 12:22 32.36963 -14.46327 32056 ft 443 kts 30°
2026-04-28 12:22 32.42043 -14.42279 32042 ft 443 kts 30°
2026-04-28 12:23 32.47181 -14.38179 32046 ft 443 kts 30°
2026-04-28 12:23 32.52270 -14.34113 32053 ft 442 kts 30°
2026-04-28 12:24 32.57375 -14.30029 32044 ft 442 kts 30°
2026-04-28 12:24 32.62464 -14.25951 32049 ft 442 kts 30°
2026-04-28 12:25 32.67551 -14.21870 32052 ft 442 kts 30°
2026-04-28 12:25 32.72647 -14.17777 32091 ft 445 kts 30°
2026-04-28 12:26 32.75225 -14.15704 32322 ft 444 kts 30°
2026-04-28 12:26 32.77761 -14.13662 32650 ft 441 kts 30°
2026-04-28 12:26 32.80311 -14.11606 32931 ft 440 kts 30°
2026-04-28 12:26 32.82826 -14.09579 33122 ft 440 kts 30°
2026-04-28 12:27 32.85383 -14.07517 33296 ft 441 kts 30°
2026-04-28 12:27 32.87895 -14.05491 33465 ft 441 kts 30°
2026-04-28 12:27 32.90448 -14.03428 33720 ft 440 kts 30°
2026-04-28 12:27 32.92979 -14.01382 34033 ft 437 kts 30°
2026-04-28 12:28 32.98015 -13.97308 34040 ft 440 kts 30°
2026-04-28 12:28 33.03084 -13.93200 34040 ft 438 kts 30°
2026-04-28 12:29 33.10596 -13.87101 34037 ft 434 kts 30°
2026-04-28 12:30 33.15564 -13.83062 34037 ft 433 kts 30°
2026-04-28 12:30 33.20546 -13.78990 34052 ft 433 kts 30°
2026-04-28 12:31 33.25503 -13.74925 34033 ft 434 kts 30°
2026-04-28 12:31 33.30482 -13.70837 34028 ft 435 kts 30°
2026-04-28 12:32 33.35494 -13.66717 34032 ft 436 kts 30°
2026-04-28 12:32 33.40463 -13.62626 34025 ft 437 kts 30°
2026-04-28 12:33 33.45473 -13.58496 34026 ft 437 kts 30°
2026-04-28 12:33 33.50476 -13.54366 34035 ft 438 kts 30°
2026-04-28 12:34 33.55490 -13.50221 34021 ft 438 kts 30°
2026-04-28 12:34 33.60507 -13.46067 34025 ft 437 kts 30°
2026-04-28 12:35 33.65496 -13.41931 34023 ft 436 kts 30°
2026-04-28 12:35 33.70483 -13.37789 34023 ft 435 kts 30°
2026-04-28 12:36 33.75438 -13.33670 34034 ft 434 kts 30°
2026-04-28 12:36 33.80399 -13.29539 34021 ft 433 kts 30°
2026-04-28 12:37 33.85338 -13.25421 34020 ft 432 kts 30°
2026-04-28 12:37 33.90289 -13.21286 34020 ft 431 kts 30°
2026-04-28 12:38 33.95207 -13.17174 34013 ft 431 kts 30°
2026-04-28 12:38 34.00110 -13.13068 34044 ft 430 kts 30°
2026-04-28 12:39 34.05042 -13.08932 34024 ft 431 kts 30°
2026-04-28 12:39 34.09962 -13.04800 34011 ft 431 kts 30°
2026-04-28 12:40 34.14848 -13.00690 34011 ft 431 kts 30°
2026-04-28 12:40 34.19787 -12.96528 34010 ft 431 kts 30°
2026-04-28 12:41 34.24690 -12.92393 34011 ft 431 kts 30°
2026-04-28 12:41 34.29589 -12.88272 34009 ft 431 kts 30°
2026-04-28 12:42 34.34537 -12.84134 34008 ft 431 kts 30°
2026-04-28 12:42 34.39455 -12.80014 34009 ft 431 kts 30°
2026-04-28 12:43 34.44366 -12.75891 34019 ft 432 kts 30°
2026-04-28 12:43 34.49304 -12.71738 34012 ft 432 kts 30°
2026-04-28 12:44 34.53431 -12.68261 34003 ft 433 kts 30°
2026-04-28 12:44 34.58378 -12.64086 34003 ft 434 kts 30°
2026-04-28 12:45 34.63332 -12.59901 33998 ft 434 kts 30°
2026-04-28 12:45 34.68291 -12.55705 33997 ft 435 kts 30°
2026-04-28 12:46 34.73272 -12.51484 33997 ft 435 kts 30°
2026-04-28 12:46 34.78228 -12.47277 33997 ft 435 kts 30°
2026-04-28 12:47 34.83172 -12.43075 33994 ft 435 kts 30°
2026-04-28 12:47 34.88151 -12.38838 33996 ft 436 kts 30°
2026-04-28 12:48 34.93125 -12.34597 34000 ft 437 kts 30°
2026-04-28 12:48 34.98106 -12.30345 33997 ft 439 kts 30°
2026-04-28 12:49 35.03108 -12.26068 33992 ft 441 kts 30°
2026-04-28 12:49 35.08136 -12.21762 33990 ft 442 kts 30°
2026-04-28 12:50 35.13169 -12.17445 33987 ft 443 kts 30°
2026-04-28 12:50 35.18224 -12.13103 33983 ft 444 kts 30°
2026-04-28 12:51 35.23278 -12.08754 33988 ft 445 kts 30°
2026-04-28 12:51 35.28341 -12.04390 33983 ft 445 kts 30°
2026-04-28 12:52 35.33425 -12.00003 33986 ft 447 kts 31°
2026-04-28 12:52 35.38492 -11.95624 33988 ft 449 kts 31°
2026-04-28 12:53 35.43618 -11.91186 33991 ft 451 kts 31°
2026-04-28 12:53 35.48754 -11.86731 33981 ft 453 kts 31°
2026-04-28 12:54 35.53923 -11.82242 33974 ft 455 kts 31°
2026-04-28 12:54 35.59081 -11.77754 33976 ft 455 kts 31°
2026-04-28 12:55 35.64244 -11.73254 33975 ft 455 kts 31°
2026-04-28 12:55 35.69401 -11.68753 33971 ft 455 kts 31°
2026-04-28 12:56 35.74542 -11.64258 33959 ft 454 kts 31°
2026-04-28 12:56 35.79701 -11.59741 33965 ft 454 kts 31°
2026-04-28 12:57 35.84815 -11.55255 33968 ft 453 kts 31°
2026-04-28 12:57 35.89973 -11.50723 33972 ft 453 kts 31°
2026-04-28 12:58 35.95103 -11.46210 33963 ft 453 kts 31°
2026-04-28 12:58 36.00200 -11.41666 33970 ft 453 kts 33°
2026-04-28 12:59 36.05223 -11.36920 33969 ft 454 kts 33°
2026-04-28 12:59 36.10210 -11.32159 33970 ft 454 kts 33°
2026-04-28 13:00 36.15237 -11.27389 33973 ft 458 kts 34°
2026-04-28 13:00 36.20345 -11.22557 33979 ft 465 kts 34°
2026-04-28 13:01 36.25493 -11.17684 33966 ft 469 kts 34°
2026-04-28 13:01 36.30681 -11.12766 33960 ft 471 kts 34°
2026-04-28 13:02 36.35890 -11.07817 33957 ft 471 kts 34°
2026-04-28 13:02 36.41068 -11.02890 33956 ft 470 kts 34°
2026-04-28 13:03 36.46235 -10.97964 33951 ft 468 kts 34°
2026-04-28 13:03 36.51391 -10.93041 33952 ft 467 kts 36°
2026-04-28 13:04 36.56546 -10.88111 33961 ft 467 kts 36°
2026-04-28 13:04 36.61698 -10.83175 33956 ft 468 kts 36°
2026-04-28 13:05 36.66863 -10.78217 33954 ft 469 kts 36°
2026-04-28 13:05 36.72043 -10.73238 33949 ft 470 kts 36°
2026-04-28 13:06 36.77195 -10.68276 33952 ft 471 kts 36°
2026-04-28 13:06 36.82387 -10.63267 33946 ft 473 kts 36°
2026-04-28 13:07 36.87605 -10.58223 33946 ft 474 kts 36°
2026-04-28 13:07 36.92819 -10.53175 33931 ft 475 kts 37°
2026-04-28 13:08 36.98038 -10.48113 33944 ft 476 kts 37°
2026-04-28 13:08 37.03271 -10.43028 33949 ft 477 kts 37°
2026-04-28 13:09 37.08542 -10.37897 33939 ft 478 kts 37°
2026-04-28 13:09 37.13772 -10.32796 33937 ft 479 kts 37°
2026-04-28 13:10 37.19030 -10.27660 33932 ft 479 kts 37°
2026-04-28 13:10 37.24294 -10.22508 33931 ft 479 kts 37°
2026-04-28 13:11 37.29556 -10.17348 33927 ft 480 kts 38°
2026-04-28 13:11 37.34811 -10.12186 33931 ft 480 kts 38°
2026-04-28 13:12 37.40062 -10.07018 33926 ft 480 kts 38°
2026-04-28 13:12 37.45313 -10.01842 33927 ft 480 kts 38°
2026-04-28 13:13 37.50559 -9.96659 33923 ft 480 kts 38°
2026-04-28 13:13 37.55829 -9.91445 33931 ft 480 kts 38°
2026-04-28 13:14 37.61096 -9.86223 33928 ft 481 kts 38°
2026-04-28 13:14 37.66326 -9.81029 33906 ft 481 kts 38°
2026-04-28 13:15 37.71580 -9.75800 33919 ft 481 kts 38°
2026-04-28 13:15 37.76850 -9.70547 33920 ft 482 kts 38°
2026-04-28 13:16 37.82107 -9.65296 33917 ft 483 kts 38°
2026-04-28 13:16 37.87376 -9.60024 33915 ft 484 kts 38°
2026-04-28 13:17 37.92649 -9.54738 33913 ft 484 kts 38°
2026-04-28 13:17 37.97925 -9.49439 33906 ft 485 kts 38°
2026-04-28 13:18 38.03235 -9.44095 33895 ft 485 kts 39°
2026-04-28 13:18 38.08474 -9.38813 33907 ft 484 kts 39°
2026-04-28 13:19 38.13764 -9.33469 33904 ft 484 kts 39°
2026-04-28 13:19 38.19020 -9.28150 33900 ft 484 kts 39°
2026-04-28 13:20 38.24291 -9.22805 33896 ft 484 kts 39°
2026-04-28 13:20 38.29581 -9.17431 33907 ft 483 kts 39°
2026-04-28 13:21 38.34816 -9.12103 33898 ft 483 kts 39°
2026-04-28 13:21 38.40077 -9.06737 33888 ft 483 kts 39°
2026-04-28 13:22 38.45311 -9.01389 33892 ft 482 kts 39°
2026-04-28 13:22 38.50539 -8.96037 33899 ft 483 kts 39°
2026-04-28 13:23 38.55788 -8.90655 33894 ft 483 kts 39°
2026-04-28 13:23 38.61026 -8.85271 33885 ft 483 kts 39°
2026-04-28 13:24 38.66264 -8.79877 33887 ft 483 kts 39°
2026-04-28 13:24 38.71464 -8.74513 33870 ft 482 kts 39°
2026-04-28 13:25 38.76691 -8.69109 33867 ft 482 kts 40°
2026-04-28 13:25 38.81920 -8.63695 33883 ft 482 kts 40°
2026-04-28 13:26 38.87143 -8.58274 33877 ft 481 kts 40°
2026-04-28 13:26 38.92333 -8.52878 33878 ft 481 kts 40°
2026-04-28 13:27 38.97507 -8.47488 33879 ft 481 kts 40°
2026-04-28 13:27 39.01849 -8.42958 33877 ft 480 kts 40°
2026-04-28 13:28 39.07880 -8.36651 33877 ft 480 kts 40°
2026-04-28 13:28 39.12198 -8.32127 33869 ft 480 kts 40°
2026-04-28 13:29 39.17384 -8.26684 33875 ft 480 kts 40°
2026-04-28 13:29 39.22565 -8.21236 33879 ft 480 kts 40°
2026-04-28 13:30 39.27764 -8.15757 33880 ft 481 kts 40°
2026-04-28 13:30 39.32950 -8.10282 33899 ft 481 kts 40°
2026-04-28 13:31 39.40688 -8.02093 33885 ft 481 kts 40°
2026-04-28 13:31 39.45876 -7.96588 33885 ft 480 kts 40°
2026-04-28 13:32 39.51016 -7.91125 33885 ft 480 kts 40°
2026-04-28 13:32 39.56182 -7.85622 33892 ft 479 kts 40°
2026-04-28 13:33 39.61315 -7.80142 33888 ft 479 kts 40°
2026-04-28 13:33 39.66458 -7.74643 33893 ft 478 kts 40°
2026-04-28 13:34 39.71593 -7.69140 33898 ft 478 kts 40°
2026-04-28 13:34 39.76711 -7.63644 33890 ft 478 kts 40°
2026-04-28 13:35 39.81834 -7.58133 33878 ft 478 kts 40°
2026-04-28 13:35 39.86946 -7.52621 33892 ft 478 kts 40°
2026-04-28 13:36 39.92069 -7.47088 33898 ft 478 kts 40°
2026-04-28 13:36 39.97184 -7.41551 33898 ft 479 kts 40°
2026-04-28 13:37 40.02307 -7.35995 33898 ft 480 kts 40°
2026-04-28 13:37 40.07458 -7.30397 33899 ft 481 kts 40°
2026-04-28 13:38 40.12602 -7.24796 33904 ft 482 kts 40°
2026-04-28 13:38 40.17755 -7.19174 33891 ft 483 kts 40°
2026-04-28 13:39 40.22914 -7.13532 33896 ft 485 kts 40°
2026-04-28 13:39 40.28086 -7.07866 33902 ft 485 kts 40°
2026-04-28 13:40 40.33253 -7.02193 33897 ft 485 kts 40°
2026-04-28 13:40 40.38405 -6.96524 33897 ft 484 kts 40°
2026-04-28 13:41 40.43562 -6.90839 33897 ft 483 kts 40°
2026-04-28 13:41 40.48693 -6.85171 33896 ft 482 kts 40°
2026-04-28 13:42 40.53825 -6.79488 33899 ft 482 kts 40°
2026-04-28 13:42 40.58936 -6.73819 33900 ft 481 kts 40°
2026-04-28 13:43 40.64066 -6.68116 33897 ft 481 kts 40°
2026-04-28 13:43 40.69172 -6.62427 33897 ft 482 kts 40°
2026-04-28 13:44 40.74286 -6.56718 33906 ft 482 kts 40°
2026-04-28 13:44 40.79406 -6.50990 33906 ft 482 kts 40°
2026-04-28 13:45 40.84535 -6.45241 33897 ft 483 kts 40°
2026-04-28 13:45 40.89646 -6.39498 33900 ft 482 kts 40°
2026-04-28 13:46 40.94727 -6.33778 33906 ft 482 kts 40°
2026-04-28 13:46 40.99820 -6.28027 33917 ft 482 kts 40°
2026-04-28 13:47 41.04850 -6.22090 33907 ft 482 kts 42°
2026-04-28 13:47 41.09811 -6.16114 33907 ft 481 kts 42°
2026-04-28 13:48 41.14773 -6.10149 33913 ft 481 kts 42°
2026-04-28 13:48 41.19734 -6.04199 33922 ft 480 kts 41°
2026-04-28 13:49 41.24684 -5.98256 33916 ft 480 kts 41°
2026-04-28 13:49 41.29606 -5.92334 33918 ft 480 kts 41°
2026-04-28 13:50 41.34557 -5.86362 33919 ft 479 kts 41°
2026-04-28 13:50 41.39488 -5.80402 33921 ft 479 kts 42°
2026-04-28 13:51 41.44411 -5.74437 33922 ft 479 kts 42°
2026-04-28 13:51 41.49325 -5.68472 33920 ft 479 kts 41°
2026-04-28 13:52 41.54587 -5.63083 33928 ft 476 kts 27°
2026-04-28 13:52 41.60627 -5.59524 33926 ft 474 kts 20°
2026-04-28 13:53 41.66746 -5.56191 33935 ft 475 kts 20°
2026-04-28 13:53 41.72831 -5.52815 33928 ft 475 kts 21°
2026-04-28 13:54 41.78915 -5.49381 33925 ft 475 kts 21°
2026-04-28 13:54 41.84994 -5.45927 33935 ft 475 kts 21°
2026-04-28 13:55 41.91074 -5.42466 33937 ft 475 kts 21°
2026-04-28 13:55 41.97149 -5.39003 33937 ft 474 kts 21°